When you browse on this site, cookies collect data to enhance your experience and personalize the content and advertising you see.
Visit our Privacy Policy to learn more. By continuing to use the site, you agree to this use of cookies and data.
  • In Romania
  • List of Countries
  • For 7 days
  • Water Temperature
  • Satellite Maps
  • Weather Map
  • Weather Widgets
  • user-avatar
    Login

    Hourly Weather Sidi Bu-l-Abbas

    Today, 18 January, Friday

    Time Temperature Precipitation Wind Pressure Humidity
    00:00 +8°C° 0 mm 1 mps 720 mmHg 73%
    01:00 +8°C° 0 mm 1 mps 720 mmHg 76%
    02:00 +7°C° 0 mm 1 mps 720 mmHg 79%
    03:00 +7°C° 0 mm 1 mps 720 mmHg 82%
    04:00 +7°C° 0 mm 1 mps 720 mmHg 83%
    05:00 +7°C° 0 mm 1 mps 720 mmHg 84%
    06:00 +7°C° 0 mm 1 mps 720 mmHg 85%
    07:00 +7°C° 0 mm 2 mps 720 mmHg 78%
    08:00 +8°C° 0 mm 2 mps 721 mmHg 72%
    09:00 +9°C° 0 mm 2 mps 721 mmHg 66%
    10:00 +12°C° 0 mm 2 mps 721 mmHg 61%
    11:00 +12°C° 0 mm 3 mps 721 mmHg 55%
    12:00 +13°C° 0 mm 4 mps 721 mmHg 50%
    13:00 +13°C° 0 mm 4 mps 721 mmHg 50%
    14:00 +13°C° 0 mm 5 mps 721 mmHg 51%
    15:00 +13°C° 0 mm 5 mps 720 mmHg 51%
    16:00 +12°C° 0 mm 5 mps 720 mmHg 61%
    17:00 +11°C° 0 mm 4 mps 720 mmHg 71%
    18:00 +9°C° 0 mm 3 mps 720 mmHg 81%
    19:00 +9°C° 0 mm 3 mps 721 mmHg 84%
    20:00 +9°C° 0 mm 2 mps 721 mmHg 86%
    21:00 +8°C° 0 mm 2 mps 721 mmHg 89%
    22:00 +8°C° 0 mm 2 mps 721 mmHg 89%
    23:00 +8°C° 0 mm 2 mps 721 mmHg 90%

    Tomorrow, 19 January, Saturday

    Time Temperature Precipitation Wind Pressure Humidity
    00:00 +8°C° 0 mm 2 mps 721 mmHg 90%
    01:00 +8°C° 0.1 mm 2 mps 721 mmHg 89%
    02:00 +8°C° 0.1 mm 3 mps 721 mmHg 87%
    03:00 +8°C° 0.1 mm 3 mps 721 mmHg 86%
    04:00 +7°C° 0 mm 3 mps 721 mmHg 87%
    05:00 +6°C° 0 mm 4 mps 721 mmHg 88%
    06:00 +6°C° 0 mm 4 mps 721 mmHg 89%
    07:00 +6°C° 0 mm 5 mps 721 mmHg 84%
    08:00 +7°C° 0 mm 6 mps 721 mmHg 80%
    09:00 +8°C° 0 mm 6 mps 722 mmHg 75%
    10:00 +9°C° 0.1 mm 6 mps 722 mmHg 72%
    11:00 +9°C° 0.1 mm 6 mps 722 mmHg 68%
    12:00 +10°C° 0.1 mm 6 mps 721 mmHg 65%
    13:00 +10°C° 0 mm 6 mps 721 mmHg 62%
    14:00 +11°C° 0 mm 6 mps 721 mmHg 58%
    15:00 +11°C° 0 mm 6 mps 720 mmHg 55%
    16:00 +10°C° 0.1 mm 5 mps 720 mmHg 61%
    17:00 +10°C° 0.1 mm 5 mps 720 mmHg 68%
    18:00 +10°C° 0.1 mm 4 mps 720 mmHg 74%
    19:00 +10°C° 0.2 mm 4 mps 720 mmHg 74%
    20:00 +10°C° 0.2 mm 4 mps 720 mmHg 74%
    21:00 +10°C° 0.2 mm 3 mps 720 mmHg 73%
    22:00 +10°C° 0 mm 4 mps 720 mmHg 73%
    23:00 +10°C° 0 mm 4 mps 720 mmHg 72%

    Day after tomorrow, 20 January, Sunday

    Time Temperature Precipitation Wind Pressure Humidity
    00:00 +9°C° 0 mm 5 mps 719 mmHg 71%
    01:00 +9°C° 0 mm 5 mps 719 mmHg 73%
    02:00 +10°C° 0 mm 4 mps 718 mmHg 75%
    03:00 +10°C° 0 mm 4 mps 718 mmHg 76%
    04:00 +9°C° 0.6 mm 5 mps 718 mmHg 78%
    05:00 +9°C° 0.6 mm 5 mps 717 mmHg 79%
    06:00 +9°C° 0.6 mm 5 mps 717 mmHg 80%
    07:00 +9°C° 0.1 mm 7 mps 717 mmHg 79%
    08:00 +10°C° 0.1 mm 8 mps 717 mmHg 77%
    09:00 +11°C° 0.1 mm 10 mps 717 mmHg 75%
    10:00 +11°C° 0 mm 11 mps 717 mmHg 71%
    11:00 +12°C° 0 mm 12 mps 717 mmHg 67%
    12:00 +13°C° 0 mm 14 mps 717 mmHg 63%
    13:00 +13°C° 0.1 mm 15 mps 717 mmHg 62%
    14:00 +11°C° 0.1 mm 15 mps 716 mmHg 62%
    15:00 +11°C° 0.1 mm 16 mps 716 mmHg 62%
    16:00 +10°C° 0.2 mm 14 mps 717 mmHg 69%
    17:00 +9°C° 0.2 mm 12 mps 717 mmHg 76%
    18:00 +8°C° 0.2 mm 10 mps 718 mmHg 84%
    19:00 +8°C° 1.5 mm 10 mps 718 mmHg 85%
    20:00 +8°C° 1.5 mm 9 mps 719 mmHg 86%
    21:00 +8°C° 1.5 mm 9 mps 720 mmHg 88%
    22:00 +7°C° 1.3 mm 8 mps 720 mmHg 88%
    23:00 +8°C° 1.3 mm 7 mps 720 mmHg 88%

    21 January, Monday

    Time Temperature Precipitation Wind Pressure Humidity
    00:00 +8°C° 1.3 mm 7 mps 721 mmHg 88%
    01:00 +8°C° 0.2 mm 6 mps 720 mmHg 87%
    02:00 +8°C° 0.2 mm 6 mps 720 mmHg 87%
    03:00 +7°C° 0.2 mm 5 mps 720 mmHg 86%
    04:00 +7°C° 0.1 mm 5 mps 720 mmHg 86%
    05:00 +7°C° 0.1 mm 5 mps 721 mmHg 86%
    06:00 +7°C° 0.1 mm 4 mps 721 mmHg 86%
    07:00 +7°C° 0 mm 5 mps 721 mmHg 83%
    08:00 +7°C° 0 mm 5 mps 722 mmHg 80%
    09:00 +8°C° 0 mm 5 mps 722 mmHg 77%
    10:00 +8°C° 0 mm 5 mps 722 mmHg 72%
    11:00 +9°C° 0 mm 6 mps 723 mmHg 68%
    12:00 +10°C° 0 mm 6 mps 723 mmHg 63%
    13:00 +9°C° 0.3 mm 6 mps 722 mmHg 64%
    14:00 +9°C° 0.3 mm 5 mps 722 mmHg 64%
    15:00 +9°C° 0.3 mm 5 mps 722 mmHg 65%
    16:00 +8°C° 0.3 mm 4 mps 722 mmHg 69%
    17:00 +8°C° 0.3 mm 4 mps 722 mmHg 74%
    18:00 +8°C° 0.3 mm 3 mps 723 mmHg 78%
    19:00 +8°C° 0.1 mm 2 mps 723 mmHg 79%
    20:00 +7°C° 0.1 mm 2 mps 723 mmHg 80%
    21:00 +7°C° 0.1 mm 2 mps 724 mmHg 81%
    22:00 +7°C° 0.1 mm 2 mps 724 mmHg 80%
    23:00 +5°C° 0.1 mm 3 mps 723 mmHg 78%

    22 January, Tuesday

    Time Temperature Precipitation Wind Pressure Humidity
    00:00 +5°C° 0.1 mm 3 mps 723 mmHg 77%
    01:00 +5°C° 0 mm 3 mps 723 mmHg 77%
    02:00 +5°C° 0 mm 3 mps 723 mmHg 76%
    03:00 +5°C° 0 mm 4 mps 723 mmHg 76%
    04:00 +4°C° 0 mm 3 mps 723 mmHg 77%
    05:00 +4°C° 0 mm 3 mps 723 mmHg 79%
    06:00 +5°C° 0 mm 2 mps 723 mmHg 80%
    07:00 +6°C° 0 mm 2 mps 723 mmHg 76%
    08:00 +6°C° 0 mm 2 mps 724 mmHg 71%
    09:00 +7°C° 0 mm 2 mps 724 mmHg 67%
    10:00 +8°C° 0 mm 3 mps 724 mmHg 62%
    11:00 +8°C° 0 mm 4 mps 724 mmHg 57%
    12:00 +10°C° 0 mm 4 mps 724 mmHg 51%
    13:00 +9°C° 0 mm 5 mps 723 mmHg 55%
    14:00 +9°C° 0 mm 6 mps 723 mmHg 58%
    15:00 +9°C° 0 mm 7 mps 722 mmHg 61%
    16:00 +8°C° 0.1 mm 7 mps 722 mmHg 65%
    17:00 +7°C° 0.1 mm 6 mps 721 mmHg 69%
    18:00 +7°C° 0.1 mm 5 mps 721 mmHg 73%
    19:00 +6°C° 0 mm 5 mps 721 mmHg 71%
    20:00 +6°C° 0 mm 5 mps 721 mmHg 69%
    21:00 +6°C° 0 mm 5 mps 721 mmHg 68%
    22:00 +5°C° 0 mm 6 mps 721 mmHg 68%
    23:00 +5°C° 0 mm 7 mps 720 mmHg 69%

    23 January, Wednesday

    Time Temperature Precipitation Wind Pressure Humidity
    00:00 +5°C° 0 mm 9 mps 720 mmHg 69%
    01:00 +5°C° 0 mm 9 mps 719 mmHg 71%
    02:00 +5°C° 0 mm 10 mps 719 mmHg 73%
    03:00 +5°C° 0 mm 10 mps 719 mmHg 75%
    04:00 +5°C° 0.1 mm 10 mps 719 mmHg 76%
    05:00 +5°C° 0.1 mm 9 mps 719 mmHg 77%
    06:00 +5°C° 0.1 mm 9 mps 718 mmHg 77%
    07:00 +6°C° 0.5 mm 9 mps 719 mmHg 79%
    08:00 +6°C° 0.5 mm 9 mps 719 mmHg 82%
    09:00 +6°C° 0.5 mm 9 mps 719 mmHg 84%
    10:00 +6°C° 0.5 mm 9 mps 718 mmHg 84%
    11:00 +6°C° 0.5 mm 9 mps 718 mmHg 84%
    12:00 +7°C° 0.5 mm 10 mps 718 mmHg 84%
    13:00 +7°C° 0.1 mm 11 mps 717 mmHg 83%
    14:00 +7°C° 0.1 mm 11 mps 717 mmHg 82%
    15:00 +7°C° 0.1 mm 12 mps 716 mmHg 81%
    16:00 +7°C° 0 mm 12 mps 716 mmHg 81%
    17:00 +7°C° 0 mm 12 mps 715 mmHg 80%
    18:00 +7°C° 0 mm 12 mps 715 mmHg 80%
    19:00 +7°C° 0 mm 12 mps 715 mmHg 80%
    20:00 +7°C° 0 mm 12 mps 715 mmHg 80%
    21:00 +7°C° 0 mm 13 mps 714 mmHg 80%
    22:00 +7°C° 0.1 mm 13 mps 714 mmHg 81%
    23:00 +7°C° 0.1 mm 13 mps 714 mmHg 81%
    Show more